Orbital Elements at Epoch 2459200.5 (2020-Dec-17.0) TDB
Reference: JPL 19 (heliocentric ecliptic J2000)
Element | Value | Uncertainty (1-sigma) | Units |
e | .1036321582625516 | 3.885e-08 | |
a | 2.758781992423944 | 1.4516e-08 | au |
q | 2.472883460373189 | 1.0921e-07 | au |
i | 3.446962148900522 | 4.3678e-06 | deg |
node | 84.12117400796673 | 7.6315e-05 | deg |
peri | 194.3923762032456 | 8.0412e-05 | deg |
M | 48.93005782234841 | 2.3269e-05 | deg |
tp | 2458973.017638054753 (2020-May-03.51763805) | 0.00010878 | TDB |
period | 1673.687993536044 4.58 | 1.321e-05 3.617e-08 | d yr |
n | .2150938534484069 | 1.6977e-09 | deg/d |
Q | 3.0446805244747 | 1.6021e-08 | au |
|
| | Orbit Determination Parameters
Additional Information
|